DKH207 KSMF-KSAN

Flight info

Callsign DKH207
Flight time 1h 14m
Altitude 35000
Route FTHIL3 FRA EHF HUULK COMIX2
Aircraft A21N/M-SDE3FGHIRWY/LB1

Departure

Time 2026-05-05 02:59
Airport Sacramento International Airport (KSMF)

Arrival

Time 2026-05-05 04:14
Airport San Diego International Airport (KSAN)
Time Latitude Longitude Altitude Speed Heading
2026-05-05 02:45 38.69273 -121.59473 28 ft 0 kts 135°
2026-05-05 02:48 38.69278 -121.59479 28 ft 2 kts 135°
2026-05-05 02:49 38.69289 -121.59489 28 ft 1 kts 156°
2026-05-05 02:49 38.69302 -121.59495 28 ft 2 kts 171°
2026-05-05 02:49 38.69316 -121.59495 28 ft 2 kts 188°
2026-05-05 02:49 38.69330 -121.59490 29 ft 2 kts 206°
2026-05-05 02:50 38.69342 -121.59481 29 ft 1 kts 222°
2026-05-05 02:50 38.69346 -121.59475 29 ft 1 kts 227°
2026-05-05 02:50 38.69348 -121.59473 29 ft 0 kts 226°
2026-05-05 02:52 38.69332 -121.59494 28 ft 10 kts 226°
2026-05-05 02:52 38.69273 -121.59569 28 ft 12 kts 224°
2026-05-05 02:52 38.69220 -121.59658 28 ft 12 kts 248°
2026-05-05 02:53 38.69212 -121.59776 28 ft 13 kts 271°
2026-05-05 02:53 38.69258 -121.59869 28 ft 14 kts 347°
2026-05-05 02:53 38.69358 -121.59869 28 ft 14 kts
2026-05-05 02:53 38.69459 -121.59870 28 ft 14 kts 358°
2026-05-05 02:54 38.69564 -121.59867 28 ft 15 kts
2026-05-05 02:54 38.69670 -121.59863 28 ft 15 kts 360°
2026-05-05 02:54 38.69777 -121.59863 28 ft 15 kts
2026-05-05 02:54 38.69886 -121.59860 28 ft 15 kts
2026-05-05 02:55 38.70000 -121.59857 28 ft 17 kts
2026-05-05 02:55 38.70126 -121.59856 28 ft 18 kts 359°
2026-05-05 02:55 38.70258 -121.59855 28 ft 19 kts
2026-05-05 02:55 38.70397 -121.59852 28 ft 20 kts
2026-05-05 02:56 38.70540 -121.59850 28 ft 20 kts
2026-05-05 02:56 38.70684 -121.59858 28 ft 20 kts 341°
2026-05-05 02:56 38.70718 -121.59984 28 ft 2 kts 266°
2026-05-05 02:56 38.70718 -121.59985 28 ft 0 kts 266°
2026-05-05 02:57 38.70718 -121.59986 28 ft 0 kts 266°
2026-05-05 02:58 38.70717 -121.60008 28 ft 4 kts 269°
2026-05-05 02:58 38.70708 -121.60067 28 ft 8 kts 239°
2026-05-05 02:58 38.70619 -121.60111 28 ft 22 kts 181°
2026-05-05 02:58 38.70268 -121.60116 28 ft 84 kts 180°
2026-05-05 02:59 38.69459 -121.60129 25 ft 145 kts 180°
2026-05-05 02:59 38.68339 -121.60153 325 ft 166 kts 180°
2026-05-05 02:59 38.67175 -121.60153 928 ft 171 kts 173°
2026-05-05 02:59 38.66074 -121.59636 1583 ft 175 kts 145°
2026-05-05 03:00 38.65288 -121.58440 2103 ft 187 kts 115°
2026-05-05 03:00 38.64865 -121.56817 2477 ft 199 kts 111°
2026-05-05 03:00 38.64278 -121.55125 2794 ft 214 kts 118°
2026-05-05 03:00 38.63536 -121.53394 3097 ft 232 kts 121°
2026-05-05 03:01 38.62675 -121.51565 3468 ft 248 kts 123°
2026-05-05 03:01 38.61751 -121.49685 4074 ft 254 kts 123°
2026-05-05 03:01 38.60785 -121.47755 4599 ft 266 kts 124°
2026-05-05 03:01 38.59773 -121.45763 5272 ft 271 kts 123°
2026-05-05 03:02 38.58746 -121.43745 6060 ft 272 kts 123°
2026-05-05 03:02 38.57723 -121.41740 6828 ft 275 kts 123°
2026-05-05 03:02 38.56666 -121.39681 7559 ft 279 kts 122°
2026-05-05 03:02 38.55609 -121.37624 8262 ft 283 kts 122°
2026-05-05 03:03 38.54518 -121.35500 8985 ft 287 kts 122°
2026-05-05 03:03 38.53435 -121.33387 9698 ft 290 kts 122°
2026-05-05 03:03 38.52326 -121.31229 10368 ft 295 kts 121°
2026-05-05 03:03 38.51182 -121.28999 10752 ft 310 kts 121°
2026-05-05 03:04 38.49970 -121.26634 11054 ft 326 kts 121°
2026-05-05 03:04 38.48705 -121.24170 11341 ft 342 kts 121°
2026-05-05 03:04 38.47353 -121.21547 11618 ft 358 kts 122°
2026-05-05 03:04 38.45976 -121.18880 11877 ft 372 kts 121°
2026-05-05 03:05 38.44527 -121.16075 12125 ft 386 kts 121°
2026-05-05 03:05 38.43024 -121.13168 12357 ft 399 kts 122°
2026-05-05 03:05 38.41487 -121.10196 12700 ft 407 kts 122°
2026-05-05 03:05 38.39909 -121.07155 13227 ft 410 kts 122°
2026-05-05 03:06 38.38335 -121.04127 13761 ft 412 kts 121°
2026-05-05 03:06 38.36753 -121.01077 14298 ft 420 kts 121°
2026-05-05 03:06 38.35129 -120.97955 15165 ft 422 kts 121°
2026-05-05 03:06 38.33522 -120.94873 16074 ft 423 kts 120°
2026-05-05 03:07 38.31896 -120.91749 16863 ft 426 kts 120°
2026-05-05 03:07 38.30254 -120.88605 17705 ft 427 kts 120°
2026-05-05 03:07 38.28613 -120.85465 18374 ft 431 kts 120°
2026-05-05 03:07 38.26931 -120.82291 19022 ft 435 kts 120°
2026-05-05 03:08 38.25266 -120.79103 19548 ft 440 kts 120°
2026-05-05 03:08 38.23589 -120.75880 20250 ft 440 kts 119°
2026-05-05 03:08 38.21891 -120.72626 20814 ft 442 kts 119°
2026-05-05 03:08 38.20184 -120.69350 21324 ft 445 kts 119°
2026-05-05 03:09 38.18484 -120.66112 21792 ft 447 kts 119°
2026-05-05 03:09 38.16750 -120.62822 22355 ft 447 kts 119°
2026-05-05 03:09 38.15028 -120.59535 22781 ft 448 kts 118°
2026-05-05 03:09 38.13314 -120.56255 23121 ft 451 kts 118°
2026-05-05 03:10 38.11565 -120.52930 23436 ft 454 kts 119°
2026-05-05 03:10 38.09819 -120.49632 23958 ft 451 kts 118°
2026-05-05 03:10 38.08095 -120.46349 24443 ft 446 kts 118°
2026-05-05 03:10 38.06390 -120.43105 24805 ft 445 kts 118°
2026-05-05 03:11 38.04627 -120.39825 25098 ft 446 kts 119°
2026-05-05 03:11 38.02860 -120.36646 25385 ft 446 kts 119°
2026-05-05 03:11 38.01065 -120.33434 25713 ft 446 kts 120°
2026-05-05 03:11 37.99437 -120.30523 26044 ft 445 kts 120°
2026-05-05 03:12 37.97675 -120.27368 26388 ft 443 kts 120°
2026-05-05 03:12 37.95759 -120.24288 26766 ft 447 kts 126°
2026-05-05 03:12 37.93519 -120.21508 27079 ft 453 kts 133°
2026-05-05 03:12 37.90994 -120.19088 27367 ft 460 kts 140°
2026-05-05 03:13 37.88291 -120.16986 27717 ft 461 kts 142°
2026-05-05 03:13 37.85529 -120.14929 28081 ft 460 kts 143°
2026-05-05 03:13 37.82750 -120.12878 28433 ft 459 kts 143°
2026-05-05 03:13 37.79987 -120.10834 28775 ft 458 kts 143°
2026-05-05 03:14 37.77213 -120.08781 29090 ft 458 kts 143°
2026-05-05 03:14 37.74502 -120.06770 29417 ft 457 kts 143°
2026-05-05 03:14 37.71748 -120.04727 29743 ft 457 kts 143°
2026-05-05 03:14 37.69033 -120.02712 30068 ft 456 kts 143°
2026-05-05 03:15 37.66297 -120.00682 30403 ft 455 kts 143°
2026-05-05 03:15 37.63557 -119.98647 30669 ft 455 kts 143°
2026-05-05 03:15 37.60846 -119.96635 30928 ft 454 kts 143°
2026-05-05 03:15 37.58125 -119.94617 31184 ft 454 kts 144°
2026-05-05 03:16 37.55417 -119.92610 31417 ft 454 kts 144°
2026-05-05 03:16 37.52690 -119.90591 31618 ft 455 kts 144°
2026-05-05 03:16 37.49991 -119.88589 31776 ft 456 kts 146°
2026-05-05 03:16 37.47253 -119.86565 32026 ft 456 kts 147°
2026-05-05 03:17 37.44499 -119.84537 32304 ft 454 kts 148°
2026-05-05 03:17 37.41797 -119.82552 32563 ft 452 kts 148°
2026-05-05 03:17 37.39091 -119.80565 32724 ft 453 kts 148°
2026-05-05 03:17 37.36378 -119.78571 32864 ft 454 kts 149°
2026-05-05 03:18 37.33643 -119.76558 33078 ft 454 kts 150°
2026-05-05 03:18 37.30923 -119.74562 33287 ft 453 kts 150°
2026-05-05 03:18 37.28218 -119.72581 33435 ft 454 kts 150°
2026-05-05 03:18 37.25469 -119.70567 33561 ft 456 kts 151°
2026-05-05 03:19 37.19975 -119.66556 33931 ft 458 kts 151°
2026-05-05 03:19 37.17245 -119.64563 34159 ft 458 kts 151°
2026-05-05 03:19 37.14452 -119.62659 34341 ft 458 kts 155°
2026-05-05 03:20 37.11557 -119.60952 34519 ft 457 kts 158°
2026-05-05 03:20 37.08648 -119.59480 34714 ft 456 kts 162°
2026-05-05 03:20 37.05633 -119.58192 34907 ft 455 kts 165°
2026-05-05 03:20 37.02615 -119.57132 34972 ft 455 kts 167°
2026-05-05 03:21 36.96487 -119.55222 34980 ft 455 kts 168°
2026-05-05 03:21 36.90343 -119.53306 34970 ft 453 kts 168°
2026-05-05 03:22 36.84223 -119.51398 34974 ft 452 kts 168°
2026-05-05 03:22 36.78098 -119.49489 34822 ft 453 kts 168°
2026-05-05 03:23 36.71984 -119.47585 34929 ft 452 kts 168°
2026-05-05 03:23 36.65881 -119.45690 34971 ft 452 kts 168°
2026-05-05 03:24 36.59760 -119.43789 34997 ft 450 kts 169°
2026-05-05 03:24 36.53688 -119.41908 34991 ft 449 kts 169°
2026-05-05 03:25 36.47651 -119.40043 34970 ft 448 kts 169°
2026-05-05 03:25 36.41638 -119.38184 34937 ft 447 kts 169°
2026-05-05 03:26 36.35616 -119.36328 34946 ft 446 kts 169°
2026-05-05 03:26 36.29596 -119.34476 34936 ft 446 kts 170°
2026-05-05 03:27 36.23586 -119.32627 34935 ft 444 kts 170°
2026-05-05 03:27 36.17598 -119.30790 35109 ft 443 kts 170°
2026-05-05 03:28 36.11649 -119.28968 34985 ft 441 kts 170°
2026-05-05 03:28 36.05700 -119.27148 34960 ft 440 kts 170°
2026-05-05 03:29 35.99730 -119.25325 34951 ft 440 kts 171°
2026-05-05 03:29 35.93843 -119.23527 34960 ft 438 kts 171°
2026-05-05 03:30 35.87907 -119.21719 34962 ft 438 kts 171°
2026-05-05 03:30 35.81970 -119.19913 34967 ft 437 kts 171°
2026-05-05 03:31 35.76107 -119.18136 34969 ft 435 kts 171°
2026-05-05 03:31 35.70188 -119.16342 34968 ft 435 kts 171°
2026-05-05 03:32 35.64314 -119.14561 34968 ft 435 kts 171°
2026-05-05 03:32 35.58451 -119.12788 34969 ft 435 kts 172°
2026-05-05 03:33 35.52586 -119.10997 34967 ft 433 kts 171°
2026-05-05 03:33 35.46803 -119.08701 34973 ft 439 kts 165°
2026-05-05 03:34 35.41185 -119.05718 34974 ft 442 kts 162°
2026-05-05 03:34 35.35606 -119.02610 34973 ft 440 kts 162°
2026-05-05 03:35 35.30037 -118.99508 34970 ft 440 kts 162°
2026-05-05 03:35 35.24451 -118.96398 34967 ft 440 kts 163°
2026-05-05 03:36 35.18922 -118.93327 34970 ft 439 kts 162°
2026-05-05 03:36 35.13332 -118.90224 34969 ft 439 kts 163°
2026-05-05 03:37 35.07780 -118.87149 34964 ft 438 kts 163°
2026-05-05 03:37 35.02245 -118.84087 34968 ft 436 kts 163°
2026-05-05 03:38 34.96714 -118.81032 34963 ft 435 kts 163°
2026-05-05 03:38 34.91170 -118.77971 34963 ft 435 kts 164°
2026-05-05 03:39 34.85648 -118.74932 34965 ft 434 kts 164°
2026-05-05 03:39 34.80132 -118.71896 34964 ft 432 kts 164°
2026-05-05 03:40 34.74662 -118.68892 34960 ft 434 kts 164°
2026-05-05 03:40 34.69178 -118.65883 34966 ft 432 kts 165°
2026-05-05 03:41 34.63691 -118.62877 34966 ft 430 kts 165°
2026-05-05 03:41 34.58263 -118.59712 34977 ft 434 kts 161°
2026-05-05 03:42 34.52995 -118.56016 34988 ft 438 kts 159°
2026-05-05 03:42 34.47715 -118.52256 34993 ft 437 kts 159°
2026-05-05 03:43 34.42482 -118.48527 34998 ft 436 kts 160°
2026-05-05 03:43 34.37286 -118.44830 35006 ft 433 kts 160°
2026-05-05 03:44 34.32070 -118.41127 35004 ft 434 kts 160°
2026-05-05 03:44 34.26841 -118.37415 35008 ft 434 kts 161°
2026-05-05 03:45 34.21637 -118.33732 35010 ft 432 kts 161°
2026-05-05 03:45 34.16457 -118.30072 35014 ft 431 kts 161°
2026-05-05 03:46 34.11346 -118.26449 35013 ft 420 kts 162°
2026-05-05 03:46 34.06329 -118.22910 35009 ft 418 kts 162°
2026-05-05 03:47 34.01277 -118.19361 35004 ft 420 kts 162°
2026-05-05 03:47 33.96243 -118.15820 35009 ft 419 kts 162°
2026-05-05 03:48 33.91231 -118.12292 34796 ft 414 kts 162°
2026-05-05 03:48 33.88767 -118.10555 34214 ft 412 kts 162°
2026-05-05 03:48 33.86310 -118.08836 33622 ft 409 kts 163°
2026-05-05 03:49 33.83861 -118.07128 33094 ft 403 kts 164°
2026-05-05 03:49 33.81416 -118.05495 32536 ft 401 kts 165°
2026-05-05 03:49 33.78988 -118.03904 31951 ft 401 kts 164°
2026-05-05 03:49 33.76556 -118.02308 31334 ft 403 kts 165°
2026-05-05 03:50 33.74083 -118.00683 30630 ft 406 kts 164°
2026-05-05 03:50 33.71598 -117.99049 29939 ft 407 kts 164°
2026-05-05 03:50 33.69137 -117.97428 29332 ft 405 kts 163°
2026-05-05 03:50 33.66691 -117.95809 28668 ft 404 kts 163°
2026-05-05 03:51 33.64203 -117.94172 27727 ft 411 kts 162°
2026-05-05 03:51 33.61703 -117.92535 26631 ft 421 kts 161°
2026-05-05 03:51 33.59113 -117.90841 25477 ft 432 kts 160°
2026-05-05 03:51 33.56474 -117.89106 24325 ft 441 kts 158°
2026-05-05 03:52 33.53770 -117.87315 23133 ft 450 kts 156°
2026-05-05 03:52 33.51027 -117.85445 22130 ft 456 kts 155°
2026-05-05 03:52 33.48290 -117.83556 21447 ft 455 kts 155°
2026-05-05 03:52 33.45623 -117.81563 21024 ft 456 kts 151°
2026-05-05 03:53 33.43032 -117.79347 20622 ft 455 kts 147°
2026-05-05 03:53 33.40594 -117.76959 19964 ft 452 kts 143°
2026-05-05 03:53 33.38256 -117.74477 19160 ft 449 kts 142°
2026-05-05 03:53 33.35946 -117.71993 18396 ft 446 kts 142°
2026-05-05 03:54 33.33666 -117.69544 17692 ft 440 kts 141°
2026-05-05 03:54 33.31393 -117.67101 16979 ft 436 kts 141°
2026-05-05 03:54 33.29149 -117.64699 16242 ft 432 kts 141°
2026-05-05 03:54 33.26924 -117.62324 15523 ft 428 kts 141°
2026-05-05 03:55 33.24722 -117.59981 14808 ft 424 kts 141°
2026-05-05 03:55 33.22532 -117.57666 14098 ft 421 kts 141°
2026-05-05 03:55 33.20357 -117.55379 13403 ft 417 kts 141°
2026-05-05 03:55 33.18188 -117.53099 12722 ft 413 kts 141°
2026-05-05 03:56 33.16049 -117.50851 12024 ft 410 kts 141°
2026-05-05 03:56 33.13902 -117.48682 11397 ft 402 kts 144°
2026-05-05 03:56 33.11701 -117.46719 10998 ft 381 kts 147°
2026-05-05 03:56 33.09584 -117.44941 10625 ft 362 kts 148°
2026-05-05 03:57 33.07581 -117.43272 10301 ft 344 kts 148°
2026-05-05 03:57 33.05651 -117.41665 10055 ft 325 kts 148°
2026-05-05 03:57 33.03870 -117.40176 10019 ft 302 kts 148°
2026-05-05 03:57 33.02211 -117.38779 10013 ft 279 kts 148°
2026-05-05 03:58 33.00644 -117.37464 10019 ft 274 kts 149°
2026-05-05 03:58 32.99095 -117.36168 10026 ft 274 kts 149°
2026-05-05 03:58 32.97529 -117.34860 10030 ft 275 kts 149°
2026-05-05 03:58 32.95975 -117.33563 10032 ft 274 kts 149°
2026-05-05 03:59 32.94416 -117.32259 10025 ft 272 kts 149°
2026-05-05 03:59 32.92874 -117.30964 9774 ft 269 kts 149°
2026-05-05 03:59 32.91329 -117.29673 9359 ft 270 kts 149°
2026-05-05 03:59 32.89790 -117.28394 8980 ft 270 kts 149°
2026-05-05 04:00 32.88270 -117.27134 8641 ft 268 kts 149°
2026-05-05 04:00 32.86742 -117.25863 8297 ft 267 kts 149°
2026-05-05 04:00 32.85211 -117.24593 7953 ft 265 kts 148°
2026-05-05 04:00 32.83715 -117.23350 7610 ft 264 kts 149°
2026-05-05 04:01 32.82201 -117.22092 7254 ft 263 kts 148°
2026-05-05 04:01 32.80681 -117.20853 6676 ft 272 kts 148°
2026-05-05 04:01 32.79243 -117.19320 6027 ft 285 kts 126°
2026-05-05 04:01 32.78503 -117.17181 5611 ft 286 kts 99°
2026-05-05 04:02 32.78566 -117.14824 5263 ft 283 kts 82°
2026-05-05 04:02 32.78693 -117.12540 4986 ft 277 kts 91°
2026-05-05 04:02 32.78539 -117.10297 4952 ft 261 kts 98°
2026-05-05 04:02 32.78225 -117.08249 4947 ft 246 kts 103°
2026-05-05 04:03 32.77871 -117.06314 4934 ft 232 kts 102°
2026-05-05 04:03 32.77569 -117.04462 4965 ft 228 kts 101°
2026-05-05 04:03 32.77280 -117.02675 5020 ft 209 kts 102°
2026-05-05 04:03 32.77020 -117.01067 4957 ft 191 kts 101°
2026-05-05 04:04 32.76784 -116.99601 4949 ft 167 kts 102°
2026-05-05 04:04 32.76573 -116.98290 4931 ft 161 kts 102°
2026-05-05 04:04 32.76361 -116.96983 4946 ft 160 kts 101°
2026-05-05 04:04 32.76152 -116.95685 4950 ft 160 kts 102°
2026-05-05 04:05 32.75941 -116.94385 4960 ft 160 kts 101°
2026-05-05 04:05 32.75731 -116.93085 4954 ft 159 kts 102°
2026-05-05 04:05 32.75523 -116.91796 4963 ft 159 kts 101°
2026-05-05 04:05 32.75213 -116.90558 4944 ft 157 kts 127°
2026-05-05 04:06 32.74353 -116.89866 4950 ft 148 kts 177°
2026-05-05 04:06 32.73376 -116.90077 4989 ft 144 kts 206°
2026-05-05 04:06 32.72450 -116.90566 4983 ft 146 kts 210°
2026-05-05 04:06 32.71520 -116.91096 4970 ft 147 kts 211°
2026-05-05 04:07 32.70600 -116.91626 4964 ft 147 kts 211°
2026-05-05 04:07 32.69679 -116.92162 4963 ft 147 kts 211°
2026-05-05 04:07 32.68769 -116.92704 4963 ft 147 kts 211°
2026-05-05 04:07 32.67964 -116.93425 4949 ft 144 kts 238°
2026-05-05 04:08 32.67515 -116.94492 4984 ft 145 kts 254°
2026-05-05 04:08 32.67534 -116.95651 4748 ft 141 kts 283°
2026-05-05 04:08 32.67846 -116.96752 4260 ft 145 kts 289°
2026-05-05 04:08 32.68191 -116.97878 3780 ft 145 kts 288°
2026-05-05 04:09 32.68508 -116.98994 3332 ft 144 kts 286°
2026-05-05 04:09 32.68805 -117.00120 3000 ft 141 kts 285°
2026-05-05 04:09 32.69086 -117.01240 2973 ft 143 kts 285°
2026-05-05 04:09 32.69361 -117.02368 2967 ft 143 kts 285°
2026-05-05 04:10 32.69635 -117.03515 2869 ft 144 kts 284°
2026-05-05 04:10 32.69904 -117.04643 2634 ft 142 kts 284°
2026-05-05 04:10 32.70174 -117.05781 2416 ft 142 kts 284°
2026-05-05 04:10 32.70442 -117.06905 2187 ft 139 kts 284°
2026-05-05 04:11 32.70697 -117.07969 1973 ft 133 kts 284°
2026-05-05 04:11 32.70952 -117.09032 1782 ft 132 kts 284°
2026-05-05 04:11 32.71201 -117.10064 1574 ft 132 kts 284°
2026-05-05 04:11 32.71452 -117.11109 1372 ft 132 kts 284°
2026-05-05 04:12 32.71706 -117.12163 1171 ft 132 kts 285°
2026-05-05 04:12 32.71959 -117.13210 962 ft 131 kts 284°
2026-05-05 04:12 32.72205 -117.14251 776 ft 131 kts 284°
2026-05-05 04:12 32.72456 -117.15297 564 ft 131 kts 284°
2026-05-05 04:13 32.72716 -117.16329 376 ft 130 kts 285°
2026-05-05 04:13 32.72966 -117.17359 170 ft 130 kts 285°
2026-05-05 04:13 32.73214 -117.18386 34 ft 129 kts 284°
2026-05-05 04:13 32.73416 -117.19223 24 ft 66 kts 287°
2026-05-05 04:14 32.73489 -117.19525 23 ft 29 kts 286°
2026-05-05 04:14 32.73534 -117.19762 20 ft 27 kts 273°
2026-05-05 04:14 32.73515 -117.19840 20 ft 0 kts 241°
2026-05-05 04:14 32.73511 -117.19849 20 ft 1 kts 241°
2026-05-05 04:15 32.73502 -117.19869 20 ft 4 kts 245°
2026-05-05 04:15 32.73487 -117.19909 20 ft 5 kts 246°
2026-05-05 04:15 32.73463 -117.19949 20 ft 6 kts 218°
2026-05-05 04:15 32.73418 -117.19967 20 ft 7 kts 194°
2026-05-05 04:16 32.73377 -117.19981 20 ft 5 kts 204°
2026-05-05 04:16 32.73355 -117.20010 20 ft 4 kts 253°
2026-05-05 04:16 32.73351 -117.20039 20 ft 3 kts 262°
2026-05-05 04:16 32.73349 -117.20057 20 ft 0 kts 262°
2026-05-05 04:17 32.73349 -117.20058 20 ft 0 kts 262°